Colby, KS

4:32 AM CST on January 24, 2018 (GMT -0600)
Shaltz

Weather History for KCBK - August, 2012

Change the Weather History Date:

Saturday, August 18, 2012

  Actual Average (KGLD) Record (KGLD)
Temperature  
Mean Temperature 72 °F -  
Max Temperature 86 °F 86 °F 104 °F (1897)
Min Temperature 57 °F 60 °F 50 °F (2002)
Cooling Degree Days 6    
Growing Degree Days 22 (Base 50)    
Moisture  
Dew Point 47 °F    
Average Humidity 51    
Maximum Humidity 94    
Minimum Humidity 20    
Precipitation  
Precipitation 0.00 in - - ()
Sea Level Pressure  
Sea Level Pressure 30.05 in    
Wind  
Wind Speed 10 mph ()    
Max Wind Speed 21 mph    
Max Gust Speed 31 mph    
Visibility 10.0 miles    
Events Rain    
Averages and records for this station are not official NWS values.
T = Trace of Precipitation, MM = Missing Value Source: Averaged Metar Reports

Daily Weather History Graph

Daily Weather History Graph

Search for Another Location

Airport or City:

Trip Planner

Search our weather history database for the weather conditions in past years. The results will help you decide how hot, cold, wet, or windy it might be!

Date:

Astronomy

Aug. 18, 2012 Rise Set
Actual Time 7:00 AM CDT 8:34 PM CDT
Civil Twilight 6:31 AM CDT 9:03 PM CDT
Nautical Twilight 5:57 AM CDT 9:37 PM CDT
Astronomical Twilight 5:20 AM CDT 10:13 PM CDT
Moon 8:09 AM CDT (8/18) 8:53 PM CDT (8/18)
Length of Visible Light 14h 31m
Length of Day
13h 34m
New Moon, 1% of the Moon is Illuminated
Aug 18
New Moon
Aug 24
First Quarter
Aug 31
Full
Sep 8
Last Quarter
Sep 15
New

Hourly Weather History & Observations

Time (CDT) Temp. Dew Point Humidity Pressure Visibility Wind Dir Wind Speed Gust Speed Precip Events Conditions
12:15 AM 57.2 °F 46.4 °F 67% 30.09 in 10.0 mi ESE 6.9 mph - N/A   Clear
12:35 AM 59.0 °F 46.4 °F 63% 30.09 in 10.0 mi ESE 6.9 mph - N/A   Clear
12:55 AM 60.8 °F 46.4 °F 59% 30.10 in 10.0 mi ESE 6.9 mph - N/A   Clear
1:15 AM 59.0 °F 46.4 °F 63% 30.10 in 10.0 mi ESE 6.9 mph - N/A   Clear
1:35 AM 60.8 °F 46.4 °F 59% 30.10 in 10.0 mi SE 6.9 mph - N/A   Clear
2:15 AM 62.6 °F 46.4 °F 55% 30.08 in 10.0 mi SE 11.5 mph - N/A   Scattered Clouds
2:35 AM 62.6 °F 46.4 °F 55% 30.07 in 10.0 mi SE 13.8 mph - N/A   Scattered Clouds
2:55 AM 62.6 °F 46.4 °F 55% 30.07 in 10.0 mi SE 12.7 mph - N/A   Mostly Cloudy
3:15 AM 62.6 °F 46.4 °F 55% 30.06 in 10.0 mi SE 11.5 mph - N/A   Mostly Cloudy
3:35 AM 60.8 °F 46.4 °F 59% 30.06 in 10.0 mi SE 10.4 mph - N/A   Mostly Cloudy
3:55 AM 62.6 °F 46.4 °F 55% 30.05 in 10.0 mi SE 9.2 mph - N/A   Mostly Cloudy
4:35 AM 60.8 °F 48.2 °F 63% 30.05 in 10.0 mi SSE 11.5 mph - N/A   Scattered Clouds
4:55 AM 62.6 °F 48.2 °F 59% 30.06 in 10.0 mi SE 8.1 mph - N/A   Mostly Cloudy
5:15 AM 60.8 °F 51.8 °F 72% 30.07 in 10.0 mi South 9.2 mph - N/A Rain Light Rain
5:35 AM 59.0 °F 51.8 °F 77% 30.04 in 10.0 mi SSE 12.7 mph - N/A   Scattered Clouds
5:55 AM 57.2 °F 51.8 °F 82% 30.04 in 10.0 mi South 9.2 mph - N/A   Clear
6:15 AM 59.0 °F 53.6 °F 82% 30.03 in 10.0 mi South 8.1 mph - N/A   Clear
6:35 AM 57.2 °F 53.6 °F 88% 30.03 in 10.0 mi SSE 4.6 mph - N/A   Scattered Clouds
6:55 AM 57.2 °F 55.4 °F 94% 30.02 in 10.0 mi SE 5.8 mph - N/A   Clear
7:15 AM 57.2 °F 55.4 °F 94% 30.04 in 10.0 mi Calm Calm - N/A   Scattered Clouds
7:35 AM 57.2 °F 55.4 °F 94% 30.06 in 10.0 mi WNW 4.6 mph - N/A   Scattered Clouds
8:15 AM 59.0 °F 57.2 °F 94% 30.00 in 10.0 mi East 6.9 mph - N/A   Scattered Clouds
8:35 AM 59.0 °F 55.4 °F 88% 30.02 in 10.0 mi Calm Calm - N/A   Clear
8:55 AM 59.0 °F 57.2 °F 94% 30.02 in 10.0 mi ENE 5.8 mph - N/A   Clear
9:15 AM 60.8 °F 59.0 °F 94% 30.03 in 10.0 mi SSE 4.6 mph - N/A   Clear
9:35 AM 62.6 °F 59.0 °F 88% 30.04 in 10.0 mi SW 3.5 mph - N/A   Clear
9:55 AM 64.4 °F 57.2 °F 77% 30.03 in 10.0 mi WSW 4.6 mph - N/A   Clear
10:15 AM 68.0 °F 59.0 °F 73% 30.06 in 10.0 mi West 8.1 mph - N/A   Clear
10:35 AM 69.8 °F 59.0 °F 68% 30.07 in 10.0 mi West 11.5 mph - N/A   Clear
10:55 AM 73.4 °F 57.2 °F 57% 30.07 in 10.0 mi WNW 13.8 mph 17.3 mph N/A   Clear
11:15 AM 73.4 °F 59.0 °F 61% 30.07 in 10.0 mi WNW 12.7 mph 16.1 mph N/A   Clear
11:35 AM 75.2 °F 57.2 °F 53% 30.06 in 10.0 mi WNW 13.8 mph 21.9 mph N/A   Clear
11:55 AM 77.0 °F 55.4 °F 47% 30.05 in 10.0 mi NNW 15.0 mph 21.9 mph N/A   Clear
12:15 PM 78.8 °F 53.6 °F 42% 30.05 in 10.0 mi North 17.3 mph 25.3 mph N/A   Clear
12:35 PM 78.8 °F 51.8 °F 39% 30.05 in 10.0 mi NNW 15.0 mph 24.2 mph N/A   Clear
12:55 PM 80.6 °F 50.0 °F 34% 30.05 in 10.0 mi North 15.0 mph - N/A   Clear
1:15 PM 82.4 °F 48.2 °F 30% 30.05 in 10.0 mi North 17.3 mph 26.5 mph N/A   Clear
1:55 PM 84.2 °F 42.8 °F 23% 30.04 in 10.0 mi North 12.7 mph 25.3 mph N/A   Clear
2:15 PM 86.0 °F 42.8 °F 22% 30.04 in 10.0 mi North 20.7 mph 29.9 mph N/A   Clear
2:35 PM 86.0 °F 42.8 °F 22% 30.04 in 10.0 mi North 18.4 mph 26.5 mph N/A   Clear
2:55 PM 84.2 °F 42.8 °F 23% 30.03 in 10.0 mi NNE 18.4 mph 26.5 mph N/A   Clear
3:15 PM 86.0 °F 42.8 °F 22% 30.03 in 10.0 mi North 15.0 mph 23.0 mph N/A   Clear
3:35 PM 82.4 °F 39.2 °F 21% 30.02 in 10.0 mi North 17.3 mph 26.5 mph N/A   Clear
3:55 PM 86.0 °F 41.0 °F 20% 30.02 in 10.0 mi North 12.7 mph 25.3 mph N/A   Clear
4:15 PM 84.2 °F 41.0 °F 22% 30.02 in 10.0 mi North 19.6 mph 25.3 mph N/A   Clear
4:35 PM 86.0 °F 41.0 °F 20% 30.01 in 10.0 mi North 15.0 mph 31.1 mph N/A   Clear
4:55 PM 84.2 °F 39.2 °F 20% 30.01 in 10.0 mi North 19.6 mph 31.1 mph N/A   Clear
5:15 PM 84.2 °F 39.2 °F 20% 30.01 in 10.0 mi North 16.1 mph 27.6 mph N/A   Clear
5:35 PM 84.2 °F 39.2 °F 20% 30.02 in 10.0 mi North 18.4 mph 24.2 mph N/A   Clear
5:55 PM 82.4 °F 37.4 °F 20% 30.02 in 10.0 mi North 18.4 mph 25.3 mph N/A   Clear
6:15 PM 82.4 °F 39.2 °F 21% 30.02 in 10.0 mi North 15.0 mph 25.3 mph N/A   Clear
6:35 PM 82.4 °F 39.2 °F 21% 30.02 in 10.0 mi North 19.6 mph 24.2 mph N/A   Clear
6:55 PM 80.6 °F 39.2 °F 23% 30.03 in 10.0 mi North 18.4 mph 25.3 mph N/A   Clear
7:15 PM 80.6 °F 41.0 °F 24% 30.03 in 10.0 mi North 17.3 mph - N/A   Clear
7:35 PM 78.8 °F 41.0 °F 26% 30.04 in 10.0 mi North 16.1 mph 23.0 mph N/A   Clear
7:55 PM 77.0 °F 41.0 °F 28% 30.04 in 10.0 mi North 12.7 mph - N/A   Clear
8:15 PM 75.2 °F 41.0 °F 29% 30.05 in 10.0 mi North 12.7 mph - N/A   Clear
8:35 PM 71.6 °F 41.0 °F 33% 30.05 in 10.0 mi NNE 10.4 mph - N/A   Clear
8:55 PM 69.8 °F 41.0 °F 35% 30.06 in 10.0 mi NNE 9.2 mph - N/A   Clear
9:15 PM 68.0 °F 41.0 °F 37% 30.07 in 10.0 mi NNE 8.1 mph - N/A   Clear
9:35 PM 64.4 °F 39.2 °F 40% 30.07 in 10.0 mi NNE 11.5 mph - N/A   Clear
9:55 PM 62.6 °F 41.0 °F 45% 30.08 in 10.0 mi ENE 8.1 mph - N/A   Clear
10:15 PM 64.4 °F 42.8 °F 45% 30.09 in 10.0 mi NE 12.7 mph - N/A   Clear
10:35 PM 64.4 °F 44.6 °F 49% 30.10 in 10.0 mi NE 13.8 mph - N/A   Clear
11:15 PM 62.6 °F 44.6 °F 52% 30.12 in 10.0 mi ENE 10.4 mph - N/A   Clear
11:55 PM 57.2 °F 46.4 °F 67% 30.14 in 10.0 mi East 4.6 mph - N/A   Clear